Nantucket, MA

1:12 PM EDT on May 24, 2017 (GMT -0400)
Nantucket Memorial

Weather History for KACK - July, 2013

Change the Weather History Date:

Thursday, July 11, 2013

  Actual Average Record
Temperature  
Mean Temperature 72 °F -  
Max Temperature 75 °F 74 °F 84 °F (1981)
Min Temperature 69 °F 61 °F 52 °F (1977)
Cooling Degree Days 7    
Growing Degree Days 22 (Base 50)    
Moisture  
Dew Point 70 °F    
Average Humidity 93    
Maximum Humidity 100    
Minimum Humidity 83    
Precipitation  
Precipitation 0.07 in - - ()
Sea Level Pressure  
Sea Level Pressure 29.88 in    
Wind  
Wind Speed 11 mph (SSW)    
Max Wind Speed 15 mph    
Max Gust Speed 22 mph    
Visibility 4 miles    
Events Rain , Thunderstorm    
Averages and records for this station are not official NWS values.
T = Trace of Precipitation, MM = Missing Value Source: NWS Daily Summary

Daily Weather History Graph

Daily Weather History Graph

Search for Another Location

Airport or City:

Trip Planner

Search our weather history database for the weather conditions in past years. The results will help you decide how hot, cold, wet, or windy it might be!

Date:

Astronomy

Jul. 11, 2013 Rise Set
Actual Time 5:17 AM EDT 8:13 PM EDT
Civil Twilight 4:44 AM EDT 8:46 PM EDT
Nautical Twilight 4:02 AM EDT 9:28 PM EDT
Astronomical Twilight 3:13 AM EDT 10:17 PM EDT
Moon 8:35 AM EDT (7/11) 9:49 PM EDT (7/11)
Length of Visible Light 16h 02m
Length of Day
14h 56m
Waxing Crescent, 10% of the Moon is Illuminated
Jul 11
Waxing Crescent
Jul 15
First Quarter
Jul 22
Full
Jul 29
Last Quarter
Aug 6
New

Hourly Weather History & Observations

Time (EDT) Temp. Dew Point Humidity Pressure Visibility Wind Dir Wind Speed Gust Speed Precip Events Conditions
12:53 AM 71.1 °F 69.1 °F 93% 29.86 in 5.0 mi SSW 12.7 mph - N/A   Overcast
1:53 AM 71.1 °F 69.1 °F 93% 29.86 in 6.0 mi SSW 10.4 mph - N/A   Overcast
2:49 AM 71.6 °F 69.8 °F 94% 29.85 in 6.0 mi South 11.5 mph - N/A   Overcast
2:53 AM 71.1 °F 69.1 °F 93% 29.85 in 6.0 mi SSW 12.7 mph - N/A   Overcast
3:53 AM 71.1 °F 69.1 °F 93% 29.86 in 6.0 mi SSW 10.4 mph - N/A   Overcast
4:53 AM 71.1 °F 70.0 °F 96% 29.85 in 5.0 mi SSW 15.0 mph - N/A   Overcast
5:08 AM 71.6 °F 69.8 °F 94% 29.85 in 4.0 mi SW 13.8 mph - N/A   Overcast
5:45 AM 71.6 °F 69.8 °F 94% 29.85 in 2.5 mi SSW 12.7 mph - N/A   Overcast
5:53 AM 71.1 °F 70.0 °F 96% 29.85 in 2.5 mi SSW 11.5 mph - N/A   Overcast
6:00 AM 71.6 °F 69.8 °F 94% 29.85 in 3.0 mi SSW 11.5 mph - N/A   Overcast
6:09 AM 71.6 °F 69.8 °F 94% 29.85 in 2.5 mi SSW 9.2 mph - N/A   Overcast
6:26 AM 71.6 °F 69.8 °F 94% 29.86 in 3.0 mi SW 11.5 mph - N/A   Overcast
6:53 AM 71.1 °F 70.0 °F 96% 29.86 in 2.5 mi SW 10.4 mph - 0.01 in   Overcast
7:25 AM 71.6 °F 71.6 °F 100% 29.87 in 3.0 mi SW 13.8 mph - N/A Thunderstorm Overcast
7:53 AM 73.9 °F 72.0 °F 93% 29.87 in 5.0 mi SSW 15.0 mph - N/A Thunderstorm Overcast
8:02 AM 73.4 °F 71.6 °F 94% 29.87 in 5.0 mi SSW 11.5 mph - N/A   Overcast
8:53 AM 72.0 °F 70.0 °F 93% 29.87 in 4.0 mi SW 5.8 mph - 0.00 in Rain Light Rain
9:22 AM 73.4 °F 69.8 °F 88% 29.88 in 8.0 mi West 15.0 mph 21.9 mph 0.00 in Thunderstorm Thunderstorm
9:53 AM 75.0 °F 70.0 °F 84% 29.88 in 7.0 mi WSW 15.0 mph - 0.00 in Thunderstorm Thunderstorm
10:00 AM 73.4 °F 69.8 °F 88% 29.88 in 7.0 mi WSW 11.5 mph - N/A   Mostly Cloudy
10:53 AM 73.9 °F 71.1 °F 91% 29.88 in 5.0 mi SW 10.4 mph - N/A   Mostly Cloudy
11:09 AM 75.2 °F 71.6 °F 89% 29.89 in 5.0 mi SW 11.5 mph - N/A   Overcast
11:53 AM 73.0 °F 70.0 °F 90% 29.89 in 6.0 mi West 11.5 mph - N/A   Overcast
12:26 PM 71.6 °F 69.8 °F 94% 29.89 in 8.0 mi NW 12.7 mph - 0.03 in Rain Light Rain
12:53 PM 73.0 °F 69.1 °F 87% 29.89 in 10.0 mi West 6.9 mph - 0.03 in   Overcast
1:53 PM 73.0 °F 68.0 °F 84% 29.89 in 9.0 mi WSW 4.6 mph - N/A   Mostly Cloudy
2:00 PM 73.4 °F 68.0 °F 83% 29.89 in 6.0 mi SSW 5.8 mph - 0.00 in Rain Light Rain
2:10 PM 69.8 °F 68.0 °F 94% 29.89 in 4.0 mi SSE 12.7 mph - 0.00 in Rain Light Rain
2:18 PM 71.6 °F 69.8 °F 94% 29.89 in 3.0 mi SE 8.1 mph - 0.01 in Rain Light Rain
2:25 PM 71.6 °F 69.8 °F 94% 29.88 in 4.0 mi SE 5.8 mph - 0.01 in Rain Light Rain
2:53 PM 72.0 °F 70.0 °F 93% 29.88 in 7.0 mi South 6.9 mph - 0.01 in Rain Light Rain
3:53 PM 72.0 °F 70.0 °F 93% 29.87 in 3.0 mi South 8.1 mph - 0.00 in   Overcast
4:00 PM 71.6 °F 69.8 °F 94% 29.87 in 3.0 mi SSW 8.1 mph - N/A   Mist
4:07 PM 71.6 °F 69.8 °F 94% 29.87 in 2.5 mi South 8.1 mph - N/A   Mist
4:37 PM 71.6 °F 69.8 °F 94% 29.87 in 3.0 mi SSW 9.2 mph - N/A   Mist
4:53 PM 70.0 °F 69.1 °F 97% 29.88 in 2.5 mi SSW 9.2 mph - N/A   Mist
5:09 PM 69.8 °F 69.8 °F 100% 29.87 in 4.0 mi South 9.2 mph - N/A   Mist
5:53 PM 70.0 °F 69.1 °F 97% 29.88 in 3.0 mi SSW 11.5 mph - 0.01 in Rain Light Rain
6:53 PM 71.1 °F 70.0 °F 96% 29.88 in 3.0 mi SSW 8.1 mph - 0.00 in Rain Light Rain
7:07 PM 71.6 °F 69.8 °F 94% 29.88 in 2.5 mi WSW 5.8 mph - 0.00 in Rain Light Rain
7:42 PM 71.6 °F 69.8 °F 94% 29.89 in 1.8 mi SSW 5.8 mph - 0.01 in Rain Light Rain
7:53 PM 70.0 °F 69.1 °F 97% 29.89 in 0.8 mi SW 5.8 mph - 0.01 in Rain Light Rain
8:09 PM 71.6 °F 69.8 °F 94% 29.89 in 1.0 mi SW 6.9 mph - 0.00 in   Overcast
8:38 PM 71.6 °F 69.8 °F 94% 29.90 in 2.0 mi SW 5.8 mph - 0.00 in   Overcast
8:53 PM 71.1 °F 70.0 °F 96% 29.91 in 2.0 mi SW 6.9 mph - 0.00 in   Overcast
9:53 PM 71.1 °F 70.0 °F 96% 29.91 in 2.0 mi SW 5.8 mph - N/A   Overcast
10:00 PM 71.6 °F 69.8 °F 94% 29.91 in 3.0 mi SSW 8.1 mph - N/A   Overcast
10:09 PM 69.8 °F 69.8 °F 100% 29.91 in 3.0 mi SSW 5.8 mph - N/A   Overcast
10:53 PM 70.0 °F 69.1 °F 97% 29.91 in 4.0 mi SSW 4.6 mph - N/A   Overcast
11:53 PM 69.1 °F 68.0 °F 96% 29.91 in 4.0 mi SW 4.6 mph - N/A   Overcast